Tracking 18980 objects as of 18-Feb-2018
HD Live streaming from Space Station
objects crossing your sky now

ATLAS 5 CENTAUR R/B

Track ATLAS 5 CENTAUR R/B now!
10-day predictions


NORAD ID: 40978
Int'l Code: 2015-058Q
Perigee: 503.0 km
Apogee: 766.4 km
Inclination: 64.8 °
Period: 97.3 minutes
Semi major axis: 7005 km
RCS: Unknown
Launch date: October 8, 2015
Source: United States (US)
Launch site: AIR FORCE WESTERN TEST RANGE (AFWTR)

Note: This is a ROCKET BODY
aabbcc
Your satellite tracking list
Your tracking list is empty




NASA's NSSDC Master Catalog

Two Line Element Set (TLE):
1 40978U 15058Q   18047.14375276 0.00000300  00000-0  28705-4 0    04
2 40978  64.7685 178.8161 0188000 358.1553   1.8447 14.80545450    05
Source of the keplerian elements: McCants